sat.trackr.live / text

‹ back to catalog

STARLINK-36418

NORAD 67422 · 2026-005U

PAYLOAD ACTIVE UNKNOWN

§ Identity

Operator
Country
US
Launch date
2026-01-12
Launch site
AFETR
Launch vehicle
Mass (kg)
RCS (m²)

Purposes: comms

External: N2YO · Heavens-Above · Gunter

§ Orbital elements

Epoch: 2026-05-25T02:01:46.897248Z

Period
94.27 min
Inclination
42.9979°
Eccentricity
0.0001189
Mean motion
15.27584861 rev/d
Perigee alt
482.2 km
Apogee alt
483.9 km
Semi-major
6,861.2 km
B*
5.3835e-4
RAAN
166.2377°
Arg perigee
263.0996°
Mean anomaly
96.9720°
Rev number
2,038

§ Raw data

STARLINK-364181 67422U 26005U   26145.08457057  .00014584  00000+0  53835-3 0  99962 67422  42.9979 166.2377 0001189 263.0996  96.9720 15.27584861 20382

JSON: /api/v1/satellites/67422 · /tle

For live sub-satellite position, see the globe view (requires WebGL).

§ Visibility from observer

Set your observer location to see the next 7 days of passes ≥ 10°. The values pass through the URL so the page stays shareable.

No JS? Fill the form by hand. The geolocation button needs JavaScript.